Terminal Aerodrome Forecast
Issued by NWS Atlanta, GA

Home | Current Version | Previous Version | Text Only | Print | Product List | Glossary On
Versions: 1 2 3 4 5 6 7 8 9 10 11 12 13 14 15 16 17 18 19 20 21 22 23 24 25 26 27 28 29 30 31 32 33 34 35 36 37 38
000
FTUS42 KFFC 291355 AAA
TAFATL
TAF AMD
KATL 291355Z 2914/3018 32006KT P6SM FEW120 SCT250
     FM291700 32007KT P6SM VCSH SCT050
      TEMPO 2920/2923 VRB10G20KT 6SM -TSRA BKN040CB
     FM300000 33005KT P6SM SCT100 BKN250
     FM301000 35003KT P6SM SCT120
     FM301400 03006KT P6SM FEW040=

USA.gov is the U.S. government's official web portal to all federal, state and local government web resources and services.